Flag for U.S.A. Weather past 2 weeks in Chicago, Illinois, U.S.A.

Now
67 °F

Passing clouds.


Feels Like: 67 °F
Forecast: 54 / 69 °F
Wind: 8 mph from Southwest

Location: Chicago Midway Airport

Current Time: Sep 23, 2014 at 11:47:37 AM

Latest Report: Sep 23, 2014 at 10:51 AM


Visibility: 10 mi

Pressure: 30.34 "Hg

Humidity: 49%

Dew point: 47 °F

Location of ChicagoLocation

Historic Weather in Chicago — Graph

°F

Chicago temperature yesterday

Maximum temperature yesterday: 68 °F (at 2:51 PM)
Minimum temperature yesterday: 48 °F (at 5:51 AM)
Average temperature yesterday: 58 °F

Past Weeks' High & Low Weather Summary

 TemperatureHumidityPressure
High82 °F (Sep 10, 3:51 PM)93% (Sep 10, 5:51 AM)30.37 "Hg (Sep 10, 5:51 AM)
Low42 °F (Sep 13, 5:51 AM)32% (Sep 19, 3:51 PM)29.52 "Hg (Sep 10, 2:51 PM)
Average62 °F69%30.08 "Hg
* Reported Sep 8 9:51 AM — Sep 23 9:51 AM, Chicago, Weather by CustomWeather, © 2014

Note: Actual official high and low records may vary slightly from our data, if they occured in-between our weather recording intervals... More about our weather records

Advertising

Chicago weather history for previous 24 hours

 ConditionsComfort  
Time TempWeatherWind HumidityBarometerVisibility
9:51 AM
Sep 23
64 °FPassing clouds.7 mph56%30.34 "Hg10 mi
8:51 AM60 °FSunny.6 mph62%30.34 "Hg10 mi
7:51 AM55 °FSunny.6 mph72%30.33 "Hg10 mi
6:51 AM50 °FPassing clouds.3 mph74%30.32 "Hg10 mi
5:51 AM50 °FClear.3 mph74%30.31 "Hg10 mi
4:51 AM52 °FClear.3 mph69%30.29 "Hg10 mi
3:51 AM53 °FClear.6 mph69%30.28 "Hg10 mi
2:51 AM53 °FClear.7 mph72%30.27 "Hg10 mi
1:51 AM53 °FClear.6 mph72%30.27 "Hg10 mi
12:51 AM55 °FClear.6 mph67%30.27 "Hg10 mi
11:51 PM
Sep 22
56 °FClear.6 mph65%30.27 "Hg10 mi
10:51 PM57 °FClear.5 mph64%30.27 "Hg10 mi
9:51 PM59 °FClear.6 mph58%30.26 "Hg10 mi
8:51 PM60 °FClear.6 mph60%30.25 "Hg10 mi
7:51 PM61 °FClear.5 mph58%30.24 "Hg10 mi
6:51 PM62 °FSunny.8 mph56%30.24 "Hg10 mi
5:51 PM64 °FSunny.9 mph52%30.22 "Hg10 mi
4:51 PM66 °FSunny.7 mph47%30.23 "Hg10 mi
3:51 PM66 °FSunny.9 mph49%30.23 "Hg10 mi
2:51 PM68 °FSunny.6 mph39%30.24 "Hg10 mi
1:51 PM66 °FSunny.No wind45%30.26 "Hg10 mi
12:51 PM65 °FPassing clouds.5 mph47%30.27 "Hg10 mi
11:51 AM63 °FPassing clouds.No wind50%30.29 "Hg10 mi
Weather by CustomWeather, © 2014

See weather overviewHow to use our weather pages